Tillbaka till svenska Fidonet
English   Information   Debug  
FILM   0/18
FNEWS_PUBLISH   4758
FN_SYSOP   42039
FN_SYSOP_OLD1   71952
FTP_FIDO   0/2
FTSC_PUBLIC   0/13899
FUNNY   0/4886
GENEALOGY.EUR   0/71
GET_INFO   105
GOLDED   0/408
HAM   3597/16403
HOLYSMOKE   0/6791
HOT_SITES   0/1
HTMLEDIT   0/71
HUB203   466
HUB_100   264
HUB_400   39
HUMOR   0/29
IC   0/2851
INTERNET   0/424
INTERUSER   0/3
IP_CONNECT   719
JAMNNTPD   0/233
JAMTLAND   0/47
KATTY_KORNER   0/41
LAN   0/16
LINUX-USER   0/19
LINUXHELP   0/1155
LINUX   0/22268
LINUX_BBS   0/957
mail   18.68
mail_fore_ok   249
MENSA   0/341
MODERATOR   0/102
MONTE   0/992
MOSCOW_OKLAHOMA   0/1245
MUFFIN   0/783
MUSIC   0/321
N203_STAT   938
N203_SYSCHAT   313
NET203   321
NET204   69
NET_DEV   0/10
NORD.ADMIN   0/101
NORD.CHAT   0/2572
NORD.FIDONET   189
NORD.HARDWARE   0/28
NORD.KULTUR   0/114
NORD.PROG   0/32
NORD.SOFTWARE   0/88
NORD.TEKNIK   0/58
NORD   0/453
OCCULT_CHAT   0/93
OS2BBS   0/787
OS2DOSBBS   0/580
OS2HW   0/42
OS2INET   0/37
OS2LAN   0/134
OS2PROG   0/36
OS2REXX   0/113
OS2USER-L   207
OS2   0/4806
OSDEBATE   0/18996
PASCAL   0/490
PERL   0/457
PHP   0/45
POINTS   0/405
POLITICS   0/29554
POL_INC   0/14731
PSION   103
R20_ADMIN   1132
R20_AMATORRADIO   0/2
R20_BEST_OF_FIDONET   14
R20_CHAT   0/893
R20_DEPP   0/3
R20_DEV   399
R20_ECHO2   1671
R20_ECHOPRES   0/35
R20_ESTAT   0/719
R20_FIDONETPROG...
...RAM.MYPOINT
  0/2
R20_FIDONETPROGRAM   0/22
R20_FIDONET   0/248
R20_FILEFIND   0/24
R20_FILEFOUND   0/22
R20_HIFI   0/3
R20_INFO2   3561
R20_INTERNET   0/12940
R20_INTRESSE   0/60
R20_INTR_KOM   0/99
R20_KANDIDAT.CHAT   42
R20_KANDIDAT   28
R20_KOM_DEV   112
R20_KONTROLL   0/13360
R20_KORSET   0/18
R20_LOKALTRAFIK   0/24
R20_MODERATOR   0/1852
R20_NC   76
R20_NET200   245
R20_NETWORK.OTH...
...ERNETS
  0/13
R20_OPERATIVSYS...
...TEM.LINUX
  0/44
R20_PROGRAMVAROR   0/1
R20_REC2NEC   534
R20_SFOSM   0/341
R20_SF   0/108
R20_SPRAK.ENGLISH   0/1
R20_SQUISH   107
R20_TEST   2
R20_WORST_OF_FIDONET   20
RAR   0/9
RA_MULTI   106
RA_UTIL   0/162
REGCON.EUR   0/2066
REGCON   0/13
SCIENCE   0/1206
SF   0/239
SHAREWARE_SUPPORT   0/5146
SHAREWRE   0/14
SIMPSONS   0/169
STATS_OLD1   0/2539.065
STATS_OLD2   0/2530
STATS_OLD3   0/2395.095
STATS_OLD4   0/1692.25
SURVIVOR   0/495
SYSOPS_CORNER   0/3
SYSOP   0/84
TAGLINES   0/112
TEAMOS2   0/4530
TECH   0/2617
TEST.444   0/105
TRAPDOOR   0/19
TREK   0/755
TUB   0/290
UFO   0/40
UNIX   0/1316
USA_EURLINK   0/102
USR_MODEMS   0/1
VATICAN   0/2740
VIETNAM_VETS   0/14
VIRUS   0/378
VIRUS_INFO   0/201
VISUAL_BASIC   0/473
WHITEHOUSE   0/5187
WIN2000   0/101
WIN32   0/30
WIN95   0/4291
WIN95_OLD1   0/70272
WINDOWS   0/1517
WWB_SYSOP   0/419
WWB_TECH   0/810
ZCC-PUBLIC   0/1
ZEC   4

 
4DOS   0/134
ABORTION   0/7
ALASKA_CHAT   0/506
ALLFIX_FILE   0/1313
ALLFIX_FILE_OLD1   0/7997
ALT_DOS   0/152
AMATEUR_RADIO   0/1039
AMIGASALE   0/14
AMIGA   0/331
AMIGA_INT   0/1
AMIGA_PROG   0/20
AMIGA_SYSOP   0/26
ANIME   0/15
ARGUS   0/924
ASCII_ART   0/340
ASIAN_LINK   0/651
ASTRONOMY   0/417
AUDIO   0/92
AUTOMOBILE_RACING   0/105
BABYLON5   0/17862
BAG   135
BATPOWER   0/361
BBBS.ENGLISH   0/382
BBSLAW   0/109
BBS_ADS   0/5290
BBS_INTERNET   0/507
BIBLE   0/3563
BINKD   0/1119
BINKLEY   0/215
BLUEWAVE   0/2173
CABLE_MODEMS   0/25
CBM   0/46
CDRECORD   0/66
CDROM   0/20
CLASSIC_COMPUTER   0/378
COMICS   0/15
CONSPRCY   0/899
COOKING   39917
COOKING_OLD1   0/24719
COOKING_OLD2   0/40862
COOKING_OLD3   0/37489
COOKING_OLD4   0/35496
COOKING_OLD5   9370
C_ECHO   0/189
C_PLUSPLUS   0/31
DIRTY_DOZEN   0/201
DOORGAMES   0/2155
DOS_INTERNET   0/196
duplikat   6102
ECHOLIST   0/18295
EC_SUPPORT   0/318
ELECTRONICS   0/359
ELEKTRONIK.GER   1534
ENET.LINGUISTIC   0/13
ENET.POLITICS   0/4
ENET.SOFT   0/11701
ENET.SYSOP   34210
ENET.TALKS   0/32
ENGLISH_TUTOR   0/2000
EVOLUTION   0/1335
FDECHO   0/217
FDN_ANNOUNCE   0/7068
FIDONEWS   24756
FIDONEWS_OLD1   0/49742
FIDONEWS_OLD2   0/35949
FIDONEWS_OLD3   0/30874
FIDONEWS_OLD4   0/37224
FIDO_SYSOP   12913
FIDO_UTIL   0/180
FILEFIND   0/209
FILEGATE   0/212
Möte HAM, 16403 texter
 lista första sista föregående nästa
Text 2653, 745 rader
Skriven 2008-12-04 20:00:17 av Amsat List (1:323/120.0)
Ärende: [keps]  orb08339.amsa
=============================
[keps]  orb08339.amsa

Return-Path: <keps-bounces@amsat.org>
X-Rcpt: craig.healy@chowda.com
X-UIDL: 1228438758.62

SB KEPS @ AMSAT  $ORB08339.O
Orbital Elements  08339.OSCAR

HR AMSAT ORBITAL ELEMENTS FOR OSCAR SATELLITES
FROM WA5QGD FORT WORTH,TX December 4, 2008
Send Subscribe/unsubscribe to KEPS at 
http://www.amsat.org/mailman/listinfo/keps
BID: ORB08339.O
TO ALL RADIO AMATEURS BT

Satellite: PO-63
Catalog number: 29712
Epoch time:      08339.70288781
Element set:      28
Inclination:      097.8559 deg
RA of node:       034.5146 deg
Eccentricity:    0.0013987
Arg of perigee:   183.6012 deg
Mean anomaly:     176.5087 deg
Mean motion:   14.80359985 rev/day
Decay rate:       5.83e-06 rev/day^2
Epoch rev:           10269
Checksum:              349

Satellite: VO-52
Catalog number: 28650
Epoch time:      08338.39264154
Element set:      95
Inclination:      097.7703 deg
RA of node:       040.1741 deg
Eccentricity:    0.0026373
Arg of perigee:   310.6228 deg
Mean anomaly:     049.2703 deg
Mean motion:   14.81526321 rev/day
Decay rate:      -2.13e-06 rev/day^2
Epoch rev:           19365
Checksum:              290

Satellite: AO-40
Catalog number: 26609
Epoch time:      08338.30552782
Element set:     162
Inclination:      008.2080 deg
RA of node:       045.5674 deg
Eccentricity:    0.7938374
Arg of perigee:   151.2607 deg
Mean anomaly:     297.1135 deg
Mean motion:   01.25587123 rev/day
Decay rate:      -1.16e-06 rev/day^2
Epoch rev:            3716
Checksum:              300

Satellite: SO-33
Catalog number: 25509
Epoch time:      08339.67248512
Element set:     338
Inclination:      031.4304 deg
RA of node:       072.3616 deg
Eccentricity:    0.0354196
Arg of perigee:   077.8019 deg
Mean anomaly:     286.2038 deg
Mean motion:   14.28233192 rev/day
Decay rate:       1.17e-06 rev/day^2
Epoch rev:           52800
Checksum:              297

Satellite: FO-29
Catalog number: 24278
Epoch time:      08339.73080535
Element set:     917
Inclination:      098.5770 deg
RA of node:       233.6109 deg
Eccentricity:    0.0351351
Arg of perigee:   133.9867 deg
Mean anomaly:     229.0816 deg
Mean motion:   13.52940622 rev/day
Decay rate:        3.5e-07 rev/day^2
Epoch rev:           60745
Checksum:              323

Satellite: RS-15
Catalog number: 23439
Epoch time:      08337.88273289
Element set:     163
Inclination:      064.8168 deg
RA of node:       222.2566 deg
Eccentricity:    0.0145726
Arg of perigee:   090.0177 deg
Mean anomaly:     271.7445 deg
Mean motion:   11.27552875 rev/day
Decay rate:       -3.9e-07 rev/day^2
Epoch rev:           57398
Checksum:              341

Satellite: UO-11
Catalog number: 14781
Epoch time:      08339.05669844
Element set:     827
Inclination:      098.1342 deg
RA of node:       015.4499 deg
Eccentricity:    0.0008077
Arg of perigee:   245.7679 deg
Mean anomaly:     114.2673 deg
Mean motion:   14.79679764 rev/day
Decay rate:      -1.30e-06 rev/day^2
Epoch rev:           32897
Checksum:              354

Satellite: AO-10
Catalog number: 14129
Epoch time:      08334.24004812
Element set:     595
Inclination:      026.0359 deg
RA of node:       183.6184 deg
Eccentricity:    0.5958472
Arg of perigee:   177.3883 deg
Mean anomaly:     188.3617 deg
Mean motion:   02.05869792 rev/day
Decay rate:       -6.9e-07 rev/day^2
Epoch rev:           19150
Checksum:              334

Satellite: AO-07
Catalog number: 07530
Epoch time:      08339.12169863
Element set:     343
Inclination:      101.4483 deg
RA of node:       004.8182 deg
Eccentricity:    0.0011693
Arg of perigee:   289.9596 deg
Mean anomaly:     070.0223 deg
Mean motion:   12.53574773 rev/day
Decay rate:       -2.7e-07 rev/day^2
Epoch rev:           55827
Checksum:              309

/EX
SB KEPS @ AMSAT  $ORB08339.D
Orbital Elements  08339.MICROS

HR AMSAT ORBITAL ELEMENTS FOR THE MICROSATS
FROM WA5QGD FORT WORTH,TX December 4, 2008
Send Subscribe/unsubscribe to KEPS at 
http://www.amsat.org/mailman/listinfo/keps
BID: ORB08339.D
TO ALL RADIO AMATEURS BT

Satellite: CO-65
Catalog number: 32785
Epoch time:      08339.87355323
Element set:     228
Inclination:      097.9729 deg
RA of node:       039.1775 deg
Eccentricity:    0.0014013
Arg of perigee:   305.5015 deg
Mean anomaly:     054.4873 deg
Mean motion:   14.81422166 rev/day
Decay rate:        5.8e-07 rev/day^2
Epoch rev:            3267
Checksum:              318

Satellite: CP4
Catalog number: 31132
Epoch time:      08339.82939631
Element set:     475
Inclination:      098.0228 deg
RA of node:       038.8728 deg
Eccentricity:    0.0086472
Arg of perigee:   157.7078 deg
Mean anomaly:     202.7918 deg
Mean motion:   14.55163903 rev/day
Decay rate:        5.9e-07 rev/day^2
Epoch rev:            8676
Checksum:              338

Satellite: CP3
Catalog number: 31128
Epoch time:      08339.68692001
Element set:     498
Inclination:      098.0192 deg
RA of node:       035.7250 deg
Eccentricity:    0.0103263
Arg of perigee:   166.9288 deg
Mean anomaly:     193.4643 deg
Mean motion:   14.51998430 rev/day
Decay rate:       -4.6e-07 rev/day^2
Epoch rev:            8667
Checksum:              322

Satellite: CO-56
Catalog number: 28941
Epoch time:      08339.83110678
Element set:     607
Inclination:      098.1232 deg
RA of node:       115.2164 deg
Eccentricity:    0.0135304
Arg of perigee:   137.0983 deg
Mean anomaly:     224.0920 deg
Mean motion:   15.66729395 rev/day
Decay rate:     4.2156e-04 rev/day^2
Epoch rev:           15666
Checksum:              319

